Regional Weather Roundup
Issued by NWS Midland/Odessa, TX

Skip options and go directly to product.
Home | Oldest Version | Previous Version | Current Version | All | Text Only | Save Text | Print | Product List | Glossary On

Skip product version selection by date and time.   
530
ASUS44 KMAF 270710
RWRMAF
MIDLAND AREA WEATHER ROUNDUP
NATIONAL WEATHER SERVICE MIDLAND TX
200 AM CDT WED JUL 27 2016

...IN SOUTHWEST TEXAS AND SOUTHEAST NEW MEXICO...

CITY           SKY/WX    TMP DP  RH WIND       PRES   REMARKS
ALPINE         CLOUDY    73  63  72 SW6       30.17F
ANDREWS        FAIR      72  70  92 CALM      30.05S
ARTESIA        CLOUDY    77  64  65 SE7       30.08S
BIG SPRING     CLEAR     78  67  69 CALM      30.03S
CARLSBAD       CLOUDY    75  66  73 S5        30.05F
DRYDEN         NOT AVBL
FORT STOCKTON  CLOUDY    75  67  76 SE7       30.01S
GUAD PASS      CLOUDY    71  59  65 NE13      30.22S
HOBBS          CLOUDY    73  64  73 W6        30.09F
MARFA          PTCLDY    71  60  68 CALM      30.16F
MIDLAND AIRPK  PTCLDY    76  71  86 CALM      30.03S
MIDLAND INTL   PTCLDY    76  69  79 CALM      30.02F
ODESSA         PTCLDY    75  68  78 S5        30.03F
PECOS          CLOUDY    76  63  64 NE3       29.99F
PRESIDIO       FAIR      83  60  44 NE9       30.00F
SEMINOLE       CLEAR     72  66  80 CALM      30.06F
SNYDER           N/A     79  65  62 SE7       30.00S
WINK           CLOUDY    75  68  78 W3        30.02R
$$
...OTHER STATIONS IN TEXAS...

CITY           SKY/WX    TMP DP  RH WIND       PRES   REMARKS
ABILENE        CLEAR     80  67  64 S8        29.98S
AMARILLO       CLEAR     69  63  81 SE7       30.09F
AUSTIN         PTCLDY    75  74  96 CALM      29.93F
BROWNSVILLE    MOCLDY    82  78  88 S8        29.90S
CORPUS CHRISTI CLOUDY    83  79  88 SE7       29.90F
DALLAS FTW     MOCLDY    82  72  71 SE7       29.91S
DEL RIO        CLEAR     75  73  93 E5        29.93F
EL PASO        MOCLDY    81  59  47 NE8       30.06S
HOUSTON INT    CLOUDY    79  73  82 CALM      29.93F
LUBBOCK        PTCLDY    74  61  63 CALM      30.05F
SAN ANGELO     CLEAR     78  67  68 S5        29.98F
SAN ANTONIO    PTCLDY    76  73  91 CALM      29.95S
WACO           PTCLDY    79  72  79 S7        29.92F
WICHITA FALLS  NOT AVBL
$$
...OTHER LOCATIONS IN NEW MEXICO...

CITY           SKY/WX    TMP DP  RH WIND       PRES   REMARKS
ALAMAGORDO     MOCLDY    77  59  53 N10       30.11R
ALBUQUERQUE    CLOUDY    75  58  55 SE9       30.21S
CANNON AFB     CLEAR     71  66  82 S3        30.12F
CLOVIS         CLEAR     70  59  68 CALM      30.13S
HOLLOMAN AFB   CLOUDY    77  62  59 N9        30.09R
ROSWELL        CLOUDY    75  63  66 SE5       30.08S
RUIDOSO        RAIN      59  59 100 NW10G17   30.37R
SANTA FE       CLOUDY    71  51  49 S8        30.28R
TRUTH OR CONSE CLOUDY    75  58  55 N17G25    30.14S
TUCUMCARI      PTCLDY    74  64  71 SW5       30.09F
$$

USA.gov is the U.S. government's official web portal to all federal, state and local government web resources and services.